Weather History for Omak, WA

Change the Weather History Date:

Friday, April 11, 2014

  Actual Average Record
Temperature  
Mean Temperature 52 °F 49 °F  
Max Temperature 70 °F 62 °F 80 °F (1943)
Min Temperature 33 °F 36 °F 24 °F (1975)
Degree Days  
Heating Degree Days 13 16  
Month to date heating degree days 171 186  
Since 1 July heating degree days 5911 5776  
Cooling Degree Days 0 0  
Month to date cooling degree days 0 0  
Year to date cooling degree days 0 0  
Growing Degree Days 2 (Base 50)    
Moisture  
Dew Point 27 °F    
Average Humidity 46    
Maximum Humidity 75    
Minimum Humidity 16    
Precipitation  
Precipitation 0.00 in 0.04 in 0.39 in (2005)
Month to date precipitation T 0.38  
Year to date precipitation 2.98 4.54  
Sea Level Pressure  
Sea Level Pressure 29.93 in    
Wind  
Wind Speed 7 mph (NW)    
Max Wind Speed 20 mph    
Max Gust Speed 30 mph    
Visibility 10 miles    
Events      
T = Trace of Precipitation, MM = Missing Value Source: NWS Daily Summary

Daily Weather History Graph

Daily Weather History Graph

Search for Another Location

Airport:

Trip Planner

Search our weather history database for the weather conditions in past years. The results will help you decide how hot, cold, wet, or windy it might be!

Date:

Astronomy

Apr. 11, 2014 Rise Set
Actual Time 6:15 AM PDT 7:43 PM PDT
Civil Twilight 5:42 AM PDT 8:16 PM PDT
Nautical Twilight 5:03 AM PDT 8:55 PM PDT
Astronomical Twilight 4:20 AM PDT 9:39 PM PDT
Moon 4:14 PM PDT (4/11) 4:29 AM PDT (4/11)
Length of Visible Light 14h 33m
Length of Day
13h 28m
Waxing Gibbous, 87% of the Moon is Illuminated
Apr 11
Waxing Gibbous
Apr 15
Full
Apr 22
Last Quarter
Apr 28
New
May 6
First Quarter

Hourly Weather History & Observations

Time (PDT) Temp. Windchill Dew Point Humidity Pressure Visibility Wind Dir Wind Speed Gust Speed Precip Events Conditions
12:53 AM 48.0 °F - 30.0 °F 50% 29.99 in 10.0 mi NW 5.8 mph - N/A   Clear
1:53 AM 46.0 °F 42.5 °F 30.0 °F 54% 29.99 in 10.0 mi WNW 6.9 mph - N/A   Partly Cloudy
2:53 AM 44.1 °F 40.8 °F 30.0 °F 58% 29.99 in 10.0 mi WNW 5.8 mph - N/A   Clear
3:53 AM 44.1 °F 42.5 °F 30.0 °F 58% 29.98 in 10.0 mi West 3.5 mph - N/A   Clear
4:53 AM 39.0 °F - 28.9 °F 67% 29.98 in 10.0 mi Calm Calm - N/A   Clear
5:53 AM 36.0 °F - 28.0 °F 73% 29.97 in 10.0 mi Calm Calm - N/A   Clear
6:53 AM 37.9 °F 35.5 °F 28.9 °F 70% 29.99 in 10.0 mi West 3.5 mph - N/A   Clear
7:53 AM 44.1 °F 41.5 °F 30.9 °F 60% 29.99 in 10.0 mi NNW 4.6 mph - N/A   Clear
8:53 AM 48.9 °F - 28.9 °F 46% 29.98 in 10.0 mi SSW 3.5 mph - N/A   Mostly Cloudy
9:53 AM 53.1 °F - 30.0 °F 41% 29.97 in 10.0 mi Variable 3.5 mph - N/A   Mostly Cloudy
10:53 AM 57.9 °F - 30.9 °F 36% 29.95 in 10.0 mi South 9.2 mph - N/A   Partly Cloudy
11:53 AM 63.0 °F - 30.9 °F 30% 29.92 in 10.0 mi Variable 5.8 mph - N/A   Scattered Clouds
12:53 PM 64.9 °F - 28.9 °F 26% 29.88 in 10.0 mi Variable 4.6 mph - N/A   Mostly Cloudy
1:53 PM 68.0 °F - 27.0 °F 21% 29.87 in 10.0 mi NNE 4.6 mph - N/A   Clear
2:53 PM 69.1 °F - 24.1 °F 18% 29.85 in 10.0 mi WNW 9.2 mph 21.9 mph N/A   Overcast
3:53 PM 69.1 °F - 21.9 °F 17% 29.84 in 10.0 mi West 15.0 mph - N/A   Scattered Clouds
4:53 PM 66.9 °F - 21.0 °F 17% 29.84 in 10.0 mi WNW 16.1 mph - N/A   Clear
5:53 PM 64.0 °F - 19.9 °F 18% 29.86 in 10.0 mi West 15.0 mph 23.0 mph N/A   Clear
6:53 PM 61.0 °F - 23.0 °F 23% 29.86 in 10.0 mi WNW 12.7 mph - N/A   Clear
7:53 PM 52.0 °F - 23.0 °F 32% 29.89 in 10.0 mi NNW 9.2 mph - N/A   Clear
8:53 PM 50.0 °F - 24.1 °F 36% 29.91 in 10.0 mi North 10.4 mph - N/A   Clear
9:53 PM 48.0 °F - 24.1 °F 39% 29.93 in 10.0 mi North 11.5 mph - N/A   Clear
10:53 PM 46.0 °F 41.4 °F 24.1 °F 42% 29.93 in 10.0 mi North 9.2 mph - N/A   Clear
11:53 PM 45.0 °F 40.1 °F 25.0 °F 46% 29.94 in 10.0 mi North 9.2 mph - N/A   Clear